Hourly Weather Snezhnyy

Today, 21 January, Thursday

Time Temperature Precipitation Wind Pressure Humidity
00:00 -19°C° 0 mm 3 mps 760 mmHg 92%
01:00 -18°C° 0 mm 2 mps 760 mmHg 92%
02:00 -19°C° 0 mm 2 mps 761 mmHg 93%
03:00 -21°C° 0 mm 3 mps 761 mmHg 92%
04:00 -21°C° 0 mm 3 mps 761 mmHg 92%
05:00 -21°C° 0 mm 3 mps 761 mmHg 92%
06:00 -20°C° 0 mm 2 mps 761 mmHg 92%
07:00 -19°C° 0 mm 2 mps 762 mmHg 92%
08:00 -21°C° 0 mm 3 mps 762 mmHg 91%
09:00 -21°C° 0 mm 3 mps 763 mmHg 90%
10:00 -17°C° 0 mm 2 mps 763 mmHg 87%
11:00 -16°C° 0 mm 2 mps 763 mmHg 84%
12:00 -15°C° 0 mm 2 mps 764 mmHg 81%
13:00 -14°C° 0 mm 2 mps 763 mmHg 81%
14:00 -13°C° 0 mm 2 mps 763 mmHg 81%
15:00 -13°C° 0 mm 2 mps 763 mmHg 81%
16:00 -13°C° 0 mm 2 mps 763 mmHg 82%
17:00 -14°C° 0 mm 2 mps 763 mmHg 84%
18:00 -15°C° 0 mm 2 mps 763 mmHg 86%
19:00 -15°C° 0 mm 2 mps 763 mmHg 85%
20:00 -15°C° 0 mm 2 mps 763 mmHg 85%
21:00 -15°C° 0 mm 3 mps 762 mmHg 84%
22:00 -14°C° 0 mm 3 mps 762 mmHg 85%
23:00 -13°C° 0 mm 3 mps 762 mmHg 86%

Tomorrow, 22 January, Friday

Time Temperature Precipitation Wind Pressure Humidity
00:00 -12°C° 0 mm 3 mps 762 mmHg 86%
01:00 -10°C° 0 mm 3 mps 761 mmHg 88%
02:00 -10°C° 0 mm 4 mps 761 mmHg 89%
03:00 -9°C° 0 mm 4 mps 760 mmHg 91%
04:00 -8°C° 0.1 mm 4 mps 760 mmHg 93%
05:00 -5°C° 0.1 mm 4 mps 760 mmHg 95%
06:00 -3°C° 0.1 mm 4 mps 760 mmHg 96%
07:00 -2°C° 0 mm 4 mps 760 mmHg 96%
08:00 -2°C° 0 mm 5 mps 760 mmHg 95%
09:00 -1°C° 0 mm 5 mps 760 mmHg 94%
10:00 -1°C° 0 mm 5 mps 760 mmHg 95%
11:00 -1°C° 0 mm 5 mps 760 mmHg 95%
12:00 0°C° 0 mm 5 mps 760 mmHg 96%
13:00 0°C° 0 mm 5 mps 760 mmHg 97%
14:00 0°C° 0 mm 5 mps 760 mmHg 97%
15:00 0°C° 0 mm 4 mps 760 mmHg 98%
16:00 -1°C° 0 mm 4 mps 760 mmHg 97%
17:00 -1°C° 0 mm 4 mps 760 mmHg 96%
18:00 -1°C° 0 mm 3 mps 760 mmHg 96%
19:00 -1°C° 0 mm 4 mps 760 mmHg 96%
20:00 -1°C° 0 mm 4 mps 760 mmHg 97%
21:00 -1°C° 0 mm 4 mps 760 mmHg 97%
22:00 -1°C° 0 mm 3 mps 760 mmHg 96%
23:00 -1°C° 0 mm 3 mps 760 mmHg 95%

Day after tomorrow, 23 January, Saturday

Time Temperature Precipitation Wind Pressure Humidity
00:00 -1°C° 0 mm 2 mps 760 mmHg 94%
01:00 -2°C° 0 mm 2 mps 760 mmHg 90%
02:00 -3°C° 0 mm 2 mps 760 mmHg 87%
03:00 -1°C° 0 mm 1 mps 760 mmHg 83%
04:00 -3°C° 0 mm 2 mps 760 mmHg 82%
05:00 -3°C° 0 mm 2 mps 760 mmHg 80%
06:00 -4°C° 0 mm 3 mps 760 mmHg 79%
07:00 -4°C° 0 mm 3 mps 760 mmHg 78%
08:00 -2°C° 0 mm 3 mps 760 mmHg 78%
09:00 -2°C° 0 mm 3 mps 760 mmHg 78%
10:00 -1°C° 0 mm 3 mps 760 mmHg 80%
11:00 -1°C° 0 mm 4 mps 760 mmHg 81%
12:00 0°C° 0 mm 4 mps 760 mmHg 83%
13:00 0°C° 0 mm 4 mps 760 mmHg 83%
14:00 +1°C° 0 mm 3 mps 760 mmHg 84%
15:00 +1°C° 0 mm 3 mps 759 mmHg 84%
16:00 0°C° 0 mm 3 mps 759 mmHg 83%
17:00 0°C° 0 mm 3 mps 759 mmHg 82%
18:00 -2°C° 0 mm 4 mps 759 mmHg 82%
19:00 -2°C° 0 mm 4 mps 759 mmHg 81%
20:00 -2°C° 0 mm 4 mps 759 mmHg 81%
21:00 -2°C° 0 mm 4 mps 759 mmHg 80%
22:00 -2°C° 0 mm 4 mps 759 mmHg 81%
23:00 -3°C° 0 mm 4 mps 759 mmHg 83%

24 January, Sunday

Time Temperature Precipitation Wind Pressure Humidity
00:00 -3°C° 0 mm 4 mps 759 mmHg 84%
01:00 -2°C° 0 mm 3 mps 759 mmHg 85%
02:00 -2°C° 0 mm 3 mps 759 mmHg 87%
03:00 -2°C° 0 mm 3 mps 759 mmHg 88%
04:00 -2°C° 0 mm 3 mps 759 mmHg 88%
05:00 -2°C° 0 mm 3 mps 758 mmHg 88%
06:00 -4°C° 0 mm 3 mps 758 mmHg 89%
07:00 -3°C° 0 mm 4 mps 758 mmHg 90%
08:00 -3°C° 0 mm 4 mps 758 mmHg 91%
09:00 -3°C° 0 mm 4 mps 758 mmHg 92%
10:00 -2°C° 0 mm 4 mps 758 mmHg 92%
11:00 -1°C° 0 mm 4 mps 758 mmHg 91%
12:00 0°C° 0 mm 4 mps 758 mmHg 91%
13:00 0°C° 0 mm 4 mps 757 mmHg 90%
14:00 0°C° 0 mm 4 mps 757 mmHg 90%
15:00 0°C° 0 mm 4 mps 756 mmHg 90%
16:00 -1°C° 0 mm 4 mps 756 mmHg 90%
17:00 -1°C° 0 mm 4 mps 756 mmHg 90%
18:00 -2°C° 0 mm 4 mps 756 mmHg 91%
19:00 -1°C° 0 mm 3 mps 756 mmHg 91%
20:00 -2°C° 0 mm 3 mps 756 mmHg 92%
21:00 -2°C° 0 mm 3 mps 756 mmHg 93%
22:00 -3°C° 0 mm 4 mps 756 mmHg 93%
23:00 -3°C° 0 mm 4 mps 756 mmHg 93%

25 January, Monday

Time Temperature Precipitation Wind Pressure Humidity
00:00 -3°C° 0 mm 4 mps 756 mmHg 93%
01:00 -3°C° 0 mm 4 mps 755 mmHg 92%
02:00 -3°C° 0 mm 4 mps 755 mmHg 92%
03:00 -3°C° 0 mm 4 mps 755 mmHg 91%
04:00 -3°C° 0 mm 4 mps 755 mmHg 93%
05:00 -2°C° 0 mm 4 mps 755 mmHg 94%
06:00 -2°C° 0 mm 5 mps 755 mmHg 95%
07:00 -2°C° 0 mm 4 mps 755 mmHg 95%
08:00 -2°C° 0 mm 4 mps 755 mmHg 95%
09:00 -2°C° 0 mm 4 mps 755 mmHg 95%
10:00 -1°C° 0 mm 4 mps 755 mmHg 93%
11:00 -1°C° 0 mm 4 mps 755 mmHg 91%
12:00 -1°C° 0 mm 4 mps 755 mmHg 90%
13:00 0°C° 0 mm 4 mps 755 mmHg 89%
14:00 0°C° 0 mm 4 mps 755 mmHg 87%
15:00 0°C° 0 mm 4 mps 754 mmHg 86%
16:00 0°C° 0 mm 4 mps 754 mmHg 88%
17:00 -1°C° 0 mm 5 mps 754 mmHg 91%
18:00 -1°C° 0 mm 5 mps 754 mmHg 93%
19:00 -1°C° 0 mm 5 mps 754 mmHg 92%
20:00 -1°C° 0 mm 5 mps 754 mmHg 91%
21:00 -1°C° 0 mm 5 mps 754 mmHg 91%
22:00 -1°C° 0 mm 5 mps 754 mmHg 91%
23:00 -1°C° 0 mm 5 mps 753 mmHg 91%

26 January, Tuesday

Time Temperature Precipitation Wind Pressure Humidity
00:00 -1°C° 0 mm 4 mps 753 mmHg 92%
01:00 -1°C° 0 mm 5 mps 753 mmHg 92%
02:00 -1°C° 0 mm 5 mps 753 mmHg 92%
03:00 -1°C° 0 mm 5 mps 753 mmHg 93%
04:00 -1°C° 0 mm 5 mps 753 mmHg 93%
05:00 -2°C° 0 mm 5 mps 753 mmHg 94%
06:00 -2°C° 0 mm 4 mps 753 mmHg 94%
07:00 -1°C° 0 mm 5 mps 753 mmHg 94%
08:00 -1°C° 0 mm 5 mps 753 mmHg 94%
09:00 -1°C° 0 mm 5 mps 754 mmHg 94%
10:00 0°C° 0 mm 5 mps 753 mmHg 93%
11:00 0°C° 0 mm 5 mps 753 mmHg 92%
12:00 +1°C° 0 mm 5 mps 753 mmHg 91%
13:00 +1°C° 0 mm 5 mps 752 mmHg 91%
14:00 +1°C° 0 mm 5 mps 752 mmHg 91%
15:00 +1°C° 0 mm 4 mps 752 mmHg 91%
16:00 +1°C° 0 mm 5 mps 751 mmHg 92%
17:00 0°C° 0 mm 5 mps 751 mmHg 93%
18:00 0°C° 0 mm 5 mps 750 mmHg 93%
19:00 0°C° 0 mm 5 mps 750 mmHg 93%
20:00 0°C° 0 mm 5 mps 750 mmHg 92%
21:00 -1°C° 0 mm 6 mps 749 mmHg 92%
22:00 -1°C° 0 mm 6 mps 749 mmHg 92%
23:00 -1°C° 0 mm 6 mps 749 mmHg 93%
Show more